Date,TemperatureHighF,TemperatureAvgF,TemperatureLowF,DewpointHighF,DewpointAvgF,DewpointLowF,HumidityHigh,HumidityAvg,HumidityLow,PressureMaxIn,PressureMinIn,WindSpeedMaxMPH,WindSpeedAvgMPH,GustSpeedMaxMPH,PrecipitationSumIn
2013-1-1,34,26,22,24,20,15,90,77,62,0.00,40.00,0,0,0,0.00
2013-1-2,45,32,23,27,19,14,70,61,36,0.00,40.00,0,0,0,0.00
2013-1-3,43,33,28,22,19,14,69,58,31,0.00,40.00,0,0,0,0.00
2013-1-4,44,33,26,24,20,17,70,60,37,0.00,40.00,0,0,0,0.00
2013-1-5,44,33,0,22,20,0,70,56,37,0.00,40.00,0,0,0,0.00
2013-1-6,33,29,24,28,25,17,91,86,54,0.00,40.00,0,0,0,0.43
2013-1-7,40,30,21,36,26,19,91,84,73,0.00,40.00,0,0,0,0.02
2013-1-8,51,39,33,30,28,25,76,66,44,0.00,40.00,0,0,0,0.00
2013-1-9,51,41,35,33,30,28,91,66,44,0.00,40.00,0,0,0,0.00
2013-1-10,33,23,20,31,20,16,94,89,85,0.00,40.00,0,0,0,0.19
2013-1-11,24,20,18,18,16,13,90,85,74,0.00,40.00,0,0,0,0.02
2013-1-12,26,18,14,18,14,10,87,83,69,0.00,40.00,0,0,0,0.02
2013-1-13,26,18,13,18,13,10,87,81,60,0.00,40.00,0,0,0,0.00
2013-1-14,28,19,11,16,9,4,82,68,42,0.00,40.00,0,0,0,0.00
2013-1-15,42,29,18,23,17,10,71,62,41,0.00,40.00,0,0,0,0.00
2013-1-16,51,37,29,28,23,19,70,57,35,0.00,40.00,0,0,0,0.00
2013-1-17,51,38,31,22,16,14,62,43,24,0.00,40.00,0,0,0,0.00
2013-1-18,50,37,31,18,14,11,47,39,21,0.00,40.00,0,0,0,0.00
2013-1-19,52,37,31,18,13,10,46,37,25,0.00,40.00,0,0,0,0.00
2013-1-20,52,38,31,16,12,9,46,36,20,0.00,40.00,0,0,0,0.00
2013-1-21,56,40,33,22,14,9,48,36,17,0.00,40.00,0,0,0,0.00
2013-1-22,54,40,35,22,16,14,46,39,24,0.00,40.00,0,0,0,0.00
2013-1-23,48,41,36,35,25,16,90,55,37,0.00,40.00,0,0,0,0.04
2013-1-24,45,40,36,44,38,34,95,93,90,0.00,40.00,0,0,0,0.73
2013-1-25,42,40,39,41,39,37,96,95,94,0.00,40.00,0,0,0,0.12
2013-1-26,42,39,36,40,38,35,96,95,94,0.00,40.00,0,0,0,0.08
2013-1-27,36,29,24,35,27,21,95,92,85,0.00,40.00,0,0,0,0.04
2013-1-28,26,25,23,24,23,22,94,92,88,0.00,40.00,0,0,0,0.02
2013-1-29,32,29,24,30,27,23,94,92,86,0.00,40.00,0,0,0,0.00
2013-1-30,51,38,31,35,31,28,94,79,47,0.00,40.00,0,0,0,0.00
2013-1-31,55,41,34,34,29,26,80,65,35,0.00,40.00,0,0,0,0.00